Radiation Dose at Monitoring Post of Fukushima Daini Nuclear Power Station
Date,Time,MP-1(microSv/h),MP-2(microSv/h),MP-3(microSv/h),MP-4(microSv/h),MP-5(microSv/h),MP-6(microSv/h),MP-7(microSv/h),Wind Direction,Wind Velocity(m/s),Rain
2019/12/20,00:00,0.186,0.166,0.283,0.262,0.256,0.143,0.088,south-southwest,2.9,Yes
2019/12/20,00:10,0.186,0.167,0.283,0.263,0.257,0.143,0.088,south-southwest,2.7,No
2019/12/20,00:20,0.186,0.166,0.284,0.263,0.256,0.142,0.089,south-southwest,3.0,No
2019/12/20,00:30,0.185,0.167,0.284,0.263,0.256,0.143,0.088,south-southwest,2.3,No
2019/12/20,00:40,0.187,0.166,0.283,0.264,0.257,0.142,0.087,southwest,2.4,No
2019/12/20,00:50,0.185,0.166,0.284,0.265,0.256,0.143,0.088,southwest,3.1,No
2019/12/20,01:00,0.185,0.166,0.285,0.264,0.255,0.143,0.088,southwest,3.2,No
2019/12/20,01:10,0.185,0.166,0.284,0.262,0.256,0.142,0.088,southwest,3.0,No
2019/12/20,01:20,0.186,0.167,0.283,0.263,0.257,0.142,0.088,southwest,3.5,No
2019/12/20,01:30,0.185,0.166,0.285,0.265,0.258,0.143,0.088,southwest,3.3,No
2019/12/20,01:40,0.185,0.167,0.283,0.264,0.257,0.143,0.088,south-southwest,3.3,No
2019/12/20,01:50,0.185,0.166,0.283,0.262,0.256,0.142,0.087,southwest,3.1,No
2019/12/20,02:00,0.185,0.165,0.284,0.263,0.255,0.144,0.087,southwest,2.7,No
2019/12/20,02:10,0.185,0.166,0.285,0.264,0.256,0.143,0.089,southwest,2.1,No
2019/12/20,02:20,0.185,0.166,0.283,0.263,0.256,0.144,0.088,west-southwest,1.6,No
2019/12/20,02:30,0.184,0.166,0.284,0.262,0.255,0.143,0.088,south-southwest,1.8,No
2019/12/20,02:40,0.185,0.167,0.284,0.263,0.256,0.143,0.088,southwest,1.7,No
2019/12/20,02:50,0.186,0.165,0.284,0.263,0.257,0.142,0.088,south-southwest,1.5,No
2019/12/20,03:00,0.184,0.167,0.282,0.262,0.255,0.142,0.088,south-southwest,1.8,No
2019/12/20,03:10,0.186,0.166,0.285,0.263,0.256,0.143,0.087,south,1.7,No
2019/12/20,03:20,0.186,0.166,0.283,0.264,0.256,0.143,0.088,southwest,2.0,No
2019/12/20,03:30,0.184,0.166,0.283,0.264,0.257,0.144,0.088,west,1.8,No
2019/12/20,03:40,0.184,0.166,0.284,0.263,0.255,0.143,0.087,west,2.0,No
2019/12/20,03:50,0.185,0.166,0.285,0.263,0.256,0.143,0.087,west-southwest,2.7,No
2019/12/20,04:00,0.185,0.166,0.282,0.263,0.258,0.142,0.088,southwest,5.0,No
2019/12/20,04:10,0.185,0.166,0.284,0.263,0.257,0.142,0.088,southwest,5.1,No
2019/12/20,04:20,0.186,0.166,0.285,0.264,0.256,0.143,0.087,southwest,4.0,No
2019/12/20,04:30,0.186,0.166,0.283,0.264,0.256,0.142,0.088,southwest,3.9,No
2019/12/20,04:40,0.185,0.165,0.283,0.264,0.257,0.142,0.088,southwest,4.0,No
2019/12/20,04:50,0.185,0.167,0.284,0.263,0.256,0.143,0.088,west-southwest,4.1,No
2019/12/20,05:00,0.185,0.166,0.283,0.264,0.256,0.143,0.088,southwest,4.5,No
2019/12/20,05:10,0.184,0.166,0.283,0.263,0.255,0.143,0.088,south-southwest,5.1,No
2019/12/20,05:20,0.186,0.166,0.284,0.263,0.255,0.142,0.088,south-southwest,3.9,No
2019/12/20,05:30,0.184,0.167,0.284,0.263,0.255,0.143,0.087,south-southwest,3.4,No
2019/12/20,05:40,0.184,0.166,0.284,0.265,0.258,0.142,0.088,west-southwest,3.2,No
2019/12/20,05:50,0.186,0.167,0.284,0.263,0.255,0.142,0.088,west,6.6,No
2019/12/20,06:00,0.185,0.166,0.284,0.264,0.256,0.143,0.088,west,5.7,No
2019/12/20,06:10,0.185,0.167,0.284,0.264,0.256,0.142,0.087,west,4.9,No
2019/12/20,06:20,0.185,0.165,0.283,0.263,0.255,0.142,0.088,west,4.0,No
2019/12/20,06:30,0.186,0.166,0.284,0.263,0.255,0.144,0.088,west,3.7,No
2019/12/20,06:40,0.185,0.166,0.285,0.264,0.256,0.143,0.088,west-northwest,3.3,No
2019/12/20,06:50,0.184,0.166,0.282,0.264,0.257,0.142,0.088,north-northwest,2.5,No
2019/12/20,07:00,0.186,0.166,0.284,0.263,0.256,0.143,0.088,north,3.1,No
2019/12/20,07:10,0.185,0.167,0.284,0.263,0.255,0.143,0.088,northwest,3.0,No
2019/12/20,07:20,0.185,0.166,0.283,0.263,0.256,0.143,0.087,southwest,0.7,No
2019/12/20,07:30,0.186,0.167,0.283,0.264,0.255,0.143,0.087,southwest,5.0,No
2019/12/20,07:40,0.185,0.167,0.284,0.262,0.255,0.143,0.087,west-southwest,4.0,No
2019/12/20,07:50,0.185,0.166,0.284,0.264,0.255,0.143,0.088,west-southwest,4.2,No
2019/12/20,08:00,0.185,0.166,0.283,0.263,0.256,0.143,0.087,west,3.7,No
2019/12/20,08:10,0.186,0.166,0.283,0.262,0.255,0.142,0.087,west-northwest,2.3,No
2019/12/20,08:20,0.185,0.166,0.285,0.262,0.257,0.143,0.087,north-northwest,4.5,No
2019/12/20,08:30,0.185,0.167,0.283,0.262,0.254,0.141,0.088,northwest,6.6,No
2019/12/20,08:40,0.185,0.166,0.282,0.262,0.256,0.142,0.087,north-northwest,6.6,No
2019/12/20,08:50,0.186,0.166,0.285,0.261,0.256,0.142,0.088,northwest,4.4,No
2019/12/20,09:00,0.185,0.167,0.284,0.263,0.256,0.141,0.087,north-northwest,4.5,No
2019/12/20,09:10,0.185,0.166,0.282,0.261,0.257,0.141,0.088,north,4.8,No
2019/12/20,09:20,0.185,0.166,0.284,0.262,0.254,0.142,0.088,north,4.7,No
2019/12/20,09:30,0.185,0.165,0.283,0.262,0.255,0.143,0.088,north,6.7,No
2019/12/20,09:40,0.186,0.167,0.284,0.262,0.256,0.143,0.087,north-northwest,6.9,No
2019/12/20,09:50,0.185,0.166,0.284,0.263,0.254,0.143,0.088,north-northwest,6.6,No
2019/12/20,10:00,0.185,0.166,0.283,0.262,0.257,0.142,0.087,north-northwest,6.7,No
2019/12/20,10:10,0.185,0.166,0.284,0.263,0.255,0.142,0.088,north-northwest,5.5,No
2019/12/20,10:20,0.184,0.166,0.285,0.263,0.256,0.142,0.088,north-northwest,6.6,No
2019/12/20,10:30,0.185,0.167,0.283,0.263,0.257,0.144,0.087,north-northwest,6.4,No
2019/12/20,10:40,0.186,0.166,0.284,0.263,0.256,0.143,0.087,northwest,5.4,No
2019/12/20,10:50,0.185,0.166,0.285,0.264,0.257,0.143,0.087,north-northwest,5.5,No
2019/12/20,11:00,0.186,0.166,0.283,0.262,0.254,0.142,0.087,north-northwest,6.3,No
2019/12/20,11:10,0.185,0.165,0.284,0.264,0.255,0.143,0.088,northwest,5.2,No
2019/12/20,11:20,0.186,0.166,0.285,0.262,0.255,0.143,0.087,north-northwest,7.9,No
2019/12/20,11:30,0.185,0.165,0.283,0.262,0.255,0.143,0.087,north-northwest,8.4,No
2019/12/20,11:40,0.185,0.165,0.284,0.263,0.255,0.142,0.088,north-northwest,9.2,No
2019/12/20,11:50,0.184,0.167,0.285,0.264,0.256,0.143,0.088,north-northwest,7.9,No
2019/12/20,12:00,0.186,0.166,0.285,0.263,0.255,0.142,0.087,north-northwest,6.7,No
2019/12/20,12:10,0.186,0.167,0.285,0.264,0.258,0.142,0.088,north,6.6,No
2019/12/20,12:20,0.185,0.165,0.282,0.262,0.255,0.143,0.088,north,5.0,No
2019/12/20,12:30,0.184,0.167,0.284,0.264,0.255,0.143,0.087,north-northwest,6.7,No
2019/12/20,12:40,0.185,0.166,0.284,0.262,0.258,0.143,0.088,north-northwest,6.2,No
2019/12/20,12:50,0.184,0.165,0.285,0.262,0.254,0.143,0.087,northwest,6.0,No
2019/12/20,13:00,0.185,0.167,0.283,0.264,0.256,0.142,0.088,north,3.6,No
2019/12/20,13:10,0.187,0.167,0.286,0.263,0.257,0.142,0.087,north,2.9,No
2019/12/20,13:20,0.185,0.167,0.284,0.264,0.256,0.142,0.088,north,3.4,No
2019/12/20,13:30,0.186,0.167,0.284,0.263,0.259,0.143,0.088,north-northwest,4.9,No
2019/12/20,13:40,0.185,0.167,0.285,0.263,0.256,0.143,0.087,northwest,3.8,No
2019/12/20,13:50,0.186,0.168,0.284,0.265,0.257,0.143,0.088,northwest,6.0,No
2019/12/20,14:00,0.186,0.167,0.284,0.265,0.256,0.142,0.088,northwest,6.9,No
2019/12/20,14:10,0.185,0.167,0.284,0.265,0.257,0.143,0.088,northwest,7.0,No
2019/12/20,14:20,0.186,0.166,0.283,0.264,0.256,0.143,0.088,north-northwest,6.0,No
2019/12/20,14:30,0.185,0.167,0.284,0.265,0.256,0.144,0.087,northwest,4.0,No
2019/12/20,14:40,0.185,0.167,0.285,0.265,0.258,0.144,0.088,northwest,4.6,No
2019/12/20,14:50,0.187,0.167,0.284,0.264,0.256,0.143,0.088,north-northwest,4.0,No
2019/12/20,15:00,0.186,0.166,0.284,0.263,0.257,0.143,0.087,northwest,4.6,No
2019/12/20,15:10,0.185,0.168,0.285,0.265,0.258,0.143,0.088,northwest,5.9,No
2019/12/20,15:20,0.186,0.168,0.283,0.263,0.256,0.143,0.087,west-northwest,5.8,No
2019/12/20,15:30,0.186,0.166,0.284,0.265,0.258,0.144,0.088,northwest,6.0,No
2019/12/20,15:40,0.185,0.166,0.285,0.265,0.257,0.143,0.088,northwest,5.6,No
2019/12/20,15:50,0.186,0.166,0.285,0.263,0.257,0.143,0.088,northwest,5.9,No
2019/12/20,16:00,0.186,0.167,0.285,0.265,0.257,0.141,0.088,northwest,6.9,No
2019/12/20,16:10,0.185,0.166,0.286,0.264,0.256,0.143,0.088,northwest,7.8,No
2019/12/20,16:20,0.186,0.168,0.285,0.264,0.256,0.144,0.087,northwest,6.3,No
2019/12/20,16:30,0.185,0.167,0.284,0.265,0.257,0.143,0.088,north-northwest,4.9,No
2019/12/20,16:40,0.185,0.167,0.286,0.265,0.256,0.143,0.089,north-northwest,5.0,No
2019/12/20,16:50,0.186,0.166,0.285,0.265,0.256,0.144,0.088,north-northwest,5.0,No
2019/12/20,17:00,0.186,0.166,0.285,0.264,0.256,0.144,0.088,north-northwest,5.7,No
2019/12/20,17:10,0.186,0.166,0.286,0.264,0.257,0.144,0.088,north-northwest,7.0,No
2019/12/20,17:20,0.185,0.168,0.287,0.266,0.256,0.143,0.088,north-northwest,8.1,No
2019/12/20,17:30,0.187,0.167,0.286,0.265,0.257,0.144,0.088,north-northwest,8.2,No
2019/12/20,17:40,0.185,0.166,0.285,0.265,0.256,0.144,0.089,north-northwest,9.2,No
2019/12/20,17:50,0.185,0.167,0.285,0.266,0.257,0.143,0.088,north-northwest,10.6,No
2019/12/20,18:00,0.186,0.167,0.286,0.265,0.257,0.144,0.088,north-northwest,9.2,No
2019/12/20,18:10,0.187,0.167,0.286,0.265,0.257,0.144,0.088,north-northwest,8.8,No
2019/12/20,18:20,0.186,0.168,0.285,0.265,0.256,0.144,0.088,north-northwest,8.7,No
2019/12/20,18:30,0.187,0.167,0.287,0.264,0.257,0.143,0.088,north-northwest,7.4,No
2019/12/20,18:40,0.186,0.167,0.287,0.267,0.256,0.143,0.088,north,9.2,No
2019/12/20,18:50,0.186,0.167,0.285,0.265,0.256,0.144,0.088,north,9.8,No
2019/12/20,19:00,0.187,0.167,0.286,0.266,0.257,0.144,0.089,north,9.3,No
2019/12/20,19:10,0.186,0.167,0.286,0.266,0.257,0.144,0.088,north,10.4,No
2019/12/20,19:20,0.186,0.167,0.287,0.266,0.258,0.144,0.088,north-northwest,11.5,No
2019/12/20,19:30,0.186,0.167,0.287,0.265,0.257,0.143,0.089,north-northwest,11.5,No
2019/12/20,19:40,0.186,0.167,0.287,0.265,0.258,0.143,0.089,north-northwest,11.2,No
2019/12/20,19:50,0.187,0.167,0.285,0.265,0.257,0.144,0.088,north-northwest,10.9,No
2019/12/20,20:00,0.187,0.167,0.286,0.266,0.258,0.144,0.089,north-northwest,10.9,No
2019/12/20,20:10,0.187,0.167,0.286,0.266,0.257,0.143,0.089,north-northwest,12.2,No
2019/12/20,20:20,0.186,0.167,0.286,0.266,0.258,0.143,0.089,north-northwest,10.6,No
2019/12/20,20:30,0.187,0.167,0.286,0.266,0.258,0.144,0.088,north-northwest,12.8,No
2019/12/20,20:40,0.187,0.167,0.285,0.265,0.257,0.144,0.088,north-northwest,12.6,No
2019/12/20,20:50,0.187,0.167,0.286,0.266,0.257,0.143,0.088,north-northwest,8.4,No
2019/12/20,21:00,0.187,0.168,0.286,0.265,0.257,0.143,0.089,northwest,6.1,No
2019/12/20,21:10,0.187,0.169,0.287,0.265,0.257,0.143,0.089,northwest,6.4,No
2019/12/20,21:20,0.187,0.169,0.288,0.265,0.257,0.143,0.089,northwest,6.8,No
2019/12/20,21:30,0.187,0.167,0.287,0.266,0.257,0.144,0.088,northwest,5.5,No
2019/12/20,21:40,0.188,0.168,0.287,0.266,0.257,0.143,0.089,northwest,5.5,No
2019/12/20,21:50,0.187,0.168,0.287,0.266,0.258,0.143,0.088,northwest,4.0,No
2019/12/20,22:00,0.187,0.168,0.287,0.264,0.257,0.142,0.088,northwest,3.5,No
2019/12/20,22:10,0.187,0.168,0.286,0.265,0.257,0.144,0.088,northwest,3.0,No
2019/12/20,22:20,0.186,0.167,0.287,0.266,0.258,0.144,0.089,northwest,3.7,No
2019/12/20,22:30,0.185,0.168,0.287,0.265,0.257,0.144,0.088,north-northwest,4.3,No
2019/12/20,22:40,0.186,0.168,0.286,0.265,0.258,0.144,0.089,north-northwest,4.6,No
2019/12/20,22:50,0.188,0.168,0.286,0.266,0.258,0.144,0.089,north-northwest,3.7,No
2019/12/20,23:00,0.187,0.168,0.286,0.265,0.257,0.144,0.088,north-northwest,3.2,No
2019/12/20,23:10,0.188,0.167,0.285,0.266,0.257,0.144,0.088,north-northwest,2.4,No
2019/12/20,23:20,0.187,0.167,0.287,0.265,0.257,0.144,0.088,northwest,0.8,No
2019/12/20,23:30,0.187,0.168,0.286,0.265,0.257,0.144,0.090,-,CALM,No
2019/12/20,23:40,0.187,0.168,0.286,0.267,0.258,0.144,0.089,north,2.0,No
2019/12/20,23:50,0.187,0.167,0.286,0.266,0.258,0.144,0.089,north,1.9,No
